Location: NJAA Observatory
(40.6819°N, 74.8979°W)
Time: 11:08:40
(UTC-04:00)

Cosmos 2263 Rocket - Visible Passes

Search period start: 21 October 2014 00:00
Search period end: 31 October 2014 00:00
Orbit: 825 x 848 km, 71.0° (Epoch: 21 October)

Date Brightness Start Highest point End Pass type
(mag) Time Alt. Az. Time Alt. Az. Time Alt. Az.
21 Oct 3.8 19:17:15 10° NW 19:22:21 37° WSW 19:27:27 10° S visible
22 Oct 3.7 19:00:33 10° NW 19:05:45 40° WSW 19:10:57 10° S visible
23 Oct 3.6 18:43:52 10° NW 18:49:09 44° WSW 18:54:27 10° S visible
24 Oct 3.4 18:27:12 10° NW 18:32:33 48° WSW 18:37:55 10° S visible
28 Oct 3.9 06:43:43 10° S 06:48:47 38° ESE 06:53:52 10° NE visible
29 Oct 4.0 06:27:14 10° SSE 06:32:11 35° ESE 06:37:10 10° NE visible
30 Oct 4.1 06:10:46 10° SSE 06:15:36 32° ESE 06:20:27 10° NE visible
